GW1554 Weather Reports


Display with metric or nautical units.
time (UTC)temp
F
wind
direction
speed
MPH
gust
MPH
rain 1hr
in
rain 24hr
in
rain mn
in
humidity
%
barometer
mb
20260507144521 62 198 4.0 12.0 0.00 0.00 0.00 74 1013.9
20260507143024 63 99 6.0 15.0 0.00 0.00 0.00 72 1013.8
20260507141520 64 188 4.0 13.0 0.00 0.00 0.00 68 1013.8
20260507140018 65 107 1.0 9.0 0.00 0.00 0.00 64 1013.9
20260507134518 64 92 5.0 9.0 0.00 0.00 0.00 61 1014.0
20260507133019 64 152 3.0 9.0 0.00 0.00 0.00 65 1014.2
20260507131519 64 148 4.0 9.0 0.00 0.00 0.00 62 1014.2
20260507130027 65 148 5.0 13.0 0.00 0.00 0.00 61 1014.4
20260507124520 65 136 3.0 12.0 0.00 0.00 0.00 63 1014.2
20260507123013 64 160 2.0 12.0 0.00 0.00 0.00 64 1014.0
20260507121511 64 79 4.0 10.0 0.00 0.00 0.00 64 1014.0
20260507120019 64 186 5.0 15.0 0.00 0.00 0.00 65 1013.9
20260507114510 63 153 7.0 11.0 0.00 0.00 0.00 68 1013.7
20260507113009 64 283 4.0 14.0 0.00 0.00 0.00 70 1013.8
20260507111507 63 135 3.0 11.0 0.00 0.00 0.00 72 1013.9
20260507110008 63 130 6.0 12.0 0.00 0.00 0.00 73 1014.0
20260507104506 63 129 5.0 12.0 0.00 0.00 0.00 75 1014.1
20260507103015 63 146 2.0 9.0 0.00 0.00 0.00 76 1014.1
20260507101506 62 214 3.0 10.0 0.00 0.00 0.00 77 1014.2
20260507100005 63 139 2.0 7.0 0.00 0.00 0.00 75 1014.2
20260507094502 63 147 0.0 6.0 0.00 0.00 0.00 75 1014.2
20260507093113 63 254 0.0 5.0 0.00 0.00 0.00 76 1014.1
20260507091559 62 132 3.0 10.0 0.00 0.00 0.00 76 1014.0
20260507090058 62 93 3.0 13.0 0.00 0.00 0.00 76 1014.0
20260507084556 62 98 2.0 10.0 0.00 0.00 0.00 73 1013.9
20260507083055 61 199 3.0 7.0 0.00 0.00 0.00 73 1013.7
20260507081554 61 176 2.0 6.0 0.00 0.00 0.00 71 1013.8
20260507080107 61 136 0.0 5.0 0.00 0.00 0.00 68 1013.7
20260507074553 60 132 3.0 7.0 0.00 0.00 0.00 64 1013.8
20260507073052 60 87 2.0 5.0 0.00 0.00 0.00 66 1013.7
20260507071607 60 108 0.0 6.0 0.00 0.00 0.00 63 1013.6
20260507070051 60 120 1.0 4.0 0.00 0.00 0.00 64 1013.3
20260507064549 60 136 1.0 3.0 0.00 0.04 0.00 60 1013.2
20260507063047 60 115 3.0 5.0 0.00 0.04 0.00 64 1013.2
20260507061543 61 127 0.0 0.0 0.00 0.04 0.00 65 1012.8
20260507060039 58 16 0.0 0.0 0.00 0.04 0.00 67 1012.8
20260507054535 58 18 0.0 0.0 0.00 0.04 0.00 66 1012.5
20260507053052 57 25 0.0 3.0 0.00 0.04 0.00 67 1012.5
20260507051538 56 347 0.0 5.0 0.00 0.04 0.00 66 1012.2
20260507050032 55 30 3.0 8.0 0.00 0.04 0.00 66 1012.1
20260507044527 54 5 1.0 7.0 0.00 0.04 0.00 66 1012.0
20260507043025 53 328 1.0 5.0 0.00 0.04 0.00 67 1011.9
20260507041524 53 297 1.0 3.0 0.00 0.04 0.00 67 1011.8
20260507040025 53 342 0.0 3.0 0.00 0.04 0.00 66 1011.7
20260507034532 54 347 1.0 3.0 0.00 0.14 0.00 66 1011.7
20260507033033 53 6 1.0 4.0 0.00 0.14 0.00 66 1011.7
20260507031517 54 307 1.0 7.0 0.00 0.14 0.00 66 1011.6
20260507030020 54 309 3.0 8.0 0.00 0.14 0.00 66 1011.6
20260507024515 54 300 0.0 2.0 0.00 0.37 0.00 67 1011.7
20260507023023 54 302 0.0 4.0 0.00 0.37 0.00 66 1011.7
20260507021512 54 5 1.0 7.0 0.00 0.37 0.00 67 1011.6
20260507020018 54 13 3.0 8.0 0.00 0.37 0.00 68 1011.4
20260507014513 53 340 0.0 3.0 0.00 0.39 0.00 71 1011.5
20260507013009 54 354 2.0 4.0 0.00 0.39 0.00 70 1011.4
20260507011507 55 45 0.0 2.0 0.00 0.39 0.00 70 1011.4
20260507010010 54 322 0.0 3.0 0.00 0.39 0.00 71 1011.5
20260507004505 55 327 0.0 3.0 0.00 0.41 0.00 72 1011.5
20260507003004 55 224 0.0 5.0 0.00 0.41 0.00 72 1011.4
20260507001605 55 355 2.0 5.0 0.00 0.41 0.00 72 1011.4
20260507000002 55 350 0.0 3.0 0.00 0.48 0.00 72 1011.4
20260506234600 56 218 0.0 1.0 0.00 0.48 0.00 71 1011.5
20260506233100 56 345 0.0 4.0 0.00 0.48 0.00 70 1011.3
20260506231602 57 65 0.0 3.0 0.00 0.48 0.00 67 1011.4
20260506230058 57 49 0.0 0.0 0.00 0.48 0.00 70 1011.5
20260506224556 56 65 0.0 4.0 0.00 0.83 0.00 71 1011.5
20260506223055 56 96 0.0 2.0 0.00 0.83 0.00 69 1011.3
20260506221552 56 294 0.0 5.0 0.00 0.83 0.00 70 1011.2
20260506220049 57 262 0.0 3.0 0.00 0.83 0.00 68 1011.2
20260506214600 57 234 0.0 2.0 0.00 0.89 0.83 69 1011.1
20260506213047 57 274 0.0 1.0 0.00 0.89 0.83 70 1011.0
20260506211547 57 248 0.0 2.0 0.00 0.89 0.83 70 1011.0
20260506210047 59 281 1.0 5.0 0.00 0.89 0.83 66 1011.0
20260506204550 59 285 1.0 8.0 0.00 0.89 0.83 64 1010.9
20260506203046 59 258 0.0 2.0 0.00 0.89 0.83 66 1010.8
20260506201545 60 291 4.0 8.0 0.00 0.89 0.83 64 1010.6
20260506200049 61 295 1.0 4.0 0.00 0.89 0.83 62 1010.4
20260506194544 60 293 1.0 4.0 0.00 0.89 0.83 64 1010.2
20260506193043 60 304 2.0 7.0 0.00 0.89 0.83 65 1009.9
20260506191550 59 333 0.0 3.0 0.00 0.89 0.83 68 1009.7
20260506190043 60 303 2.0 5.0 0.00 0.89 0.83 66 1009.4
20260506184543 60 319 1.0 5.0 0.00 0.89 0.83 66 1009.2
20260506183048 61 235 1.0 5.0 0.00 0.89 0.83 63 1009.1
20260506181553 62 266 2.0 7.0 0.00 0.89 0.83 61 1009.1
20260506180055 63 224 3.0 12.0 0.00 0.89 0.83 59 1008.9
20260506174540 66 266 2.0 11.0 0.00 0.89 0.83 56 1008.8
20260506173042 66 290 4.0 12.0 0.00 0.89 0.83 53 1008.8
20260506171539 67 281 4.0 11.0 0.00 0.89 0.83 53 1008.7
20260506170038 67 231 7.0 14.0 0.00 0.89 0.83 51 1008.7
20260506164538 68 226 4.0 13.0 0.00 0.89 0.83 51 1008.6
20260506163038 68 231 5.0 16.0 0.00 0.89 0.83 51 1008.6
20260506161536 69 193 2.0 15.0 0.00 0.89 0.83 51 1008.4
20260506160037 68 216 6.0 19.0 0.00 0.89 0.83 51 1008.5
20260506154535 69 229 3.0 23.0 0.00 0.89 0.83 51 1008.4
20260506153034 68 188 6.0 17.0 0.00 0.89 0.83 50 1008.4
20260506151534 69 220 5.0 15.0 0.00 0.89 0.83 50 1008.4
20260506150032 68 221 6.0 16.0 0.00 0.89 0.83 49 1008.4